GEFSSE_con_cape1000_102.txt.gz
Probability
16 23 77 81 84 81 87 87 81 81 87 94 94 94 100 97 94 97 97 97 97 94 94 90 87 94 97 97 97 97 97 94 94 97 94 90 90 84 77 81 87 84 74
19 23 77 74 77 74 74 77 71 77 90 97 97 97 97 97 97 97 94 94 94 87 87 90 84 87 90 94 97 97 97 94 94 94 97 97 94 84 81 77 84 90 81
19 26 48 58 61 61 55 58 58 58 61 77 90 94 90 97 100 100 94 94 90 90 90 90 87 90 94 90 87 90 94 97 94 94 97 97 97 87 77 74 77 77 84
19 29 29 52 42 39 29 32 39 55 48 52 65 68 74 81 84 94 97 87 87 90 90 90 90 87 90 90 90 87 87 94 90 87 81 81 87 90 81 71 81 71 81
26 35 35 48 39 35 35 26 26 29 32 42 42 45 55 65 77 81 87 87 84 87 87 90 90 90 87 87 87 84 87 81 84 81 87 94 97 87 77 74 77 77 77
23 23 29 42 42 29 23 26 29 26 23 32 42 39 42 52 55 48 61 77 81 77 84 84 87 84 87 84 87 84 84 81 84 71 87 94 94 90 90 77 68 74 74
23 19 23 32 32 19 13 19 16 13 19 19 23 26 39 45 45 42 45 48 74 71 68 84 94 87 87 81 84 81 74 77 71 77 81 84 90 81 81 77 71 77 81
13 13 10 29 16 19 13 13 3 6 6 0 6 10 29 29 32 35 42 42 42 52 61 71 87 87 77 87 74 77 77 77 48 58 68 84 90 81 81 74 68 84 71
10 13 10 6 3 10 13 10 3 3 6 13 6 6 16 19 23 23 32 23 29 39 55 61 65 68 77 77 77 65 74 74 52 71 45 61 77 77 77 74 74 81 74
10 6 0 0 0 0 3 0 0 3 0 0 6 10 6 3 6 16 16 26 26 23 32 48 52 58 58 74 74 74 68 68 55 35 42 61 58 74 74 81 71 71 84
3 0 0 0 0 3 0 0 0 0 0 3 6 10 6 3 3 0 0 10 6 10 19 35 39 45 48 48 61 71 68 52 45 35 29 52 39 61 81 74 77 81 90
0 0 0 0 0 0 0 0 0 0 0 0 0 0 0 3 6 0 0 6 10 10 13 26 35 39 32 29 52 55 52 39 26 32 35 52 52 71 77 71 74 77 90
0 0 0 0 0 0 0 0 0 0 0 0 0 0 0 3 0 3 6 6 6 10 6 16 23 13 23 26 39 32 26 32 26 6 19 68 65 71 74 77 84 87 90
0 0 0 0 0 0 0 0 0 0 0 0 0 0 0 0 0 3 3 0 3 10 6 10 23 19 16 10 10 16 16 29 29 19 42 58 55 71 74 84 77 87 94
0 0 0 0 0 0 0 0 0 0 0 0 0 0 0 0 0 0 0 3 3 3 6 16 19 23 13 6 6 10 3 13 10 10 23 52 55 65 74 74 77 84 97
0 0 0 0 0 0 0 0 0 0 0 0 0 0 0 3 0 0 0 0 0 3 3 13 6 16 16 10 6 3 3 3 10 10 10 42 48 55 68 74 77 84 94
0 0 0 0 0 0 0 0 0 0 0 0 3 3 3 0 0 0 0 0 0 0 0 3 0 19 10 6 3 3 10 13 13 10 16 19 42 45 65 71 71 77 94
0 0 0 0 0 0 0 0 0 0 0 3 3 3 0 0 0 0 0 3 3 3 0 6 10 13 13 10 6 10 0 29 19 10 23 23 29 29 32 77 81 74 87
0 0 0 0 0 0 0 0 0 0 0 3 3 6 3 3 3 0 3 6 0 3 10 3 10 10 13 16 6 6 6 16 10 0 0 0 3 26 39 55 61 71 81
0 0 0 0 0 0 0 0 0 0 0 0 0 0 0 3 0 0 6 0 0 3 6 13 13 10 6 16 0 3 6 6 13 6 6 0 6 3 19 19 48 39 71
0 0 0 0 0 0 0 0 0 0 0 0 0 0 3 0 0 0 0 3 0 3 10 3 3 3 10 6 0 0 6 0 0 13 13 13 10 10 19 16 32 45 61
0 0 0 0 0 0 0 0 0 0 0 0 0 0 3 0 3 0 0 0 3 10 3 3 6 10 6 3 0 3 0 0 3 0 13 16 3 10 23 6 16 32 32
0 0 0 0 0 0 0 0 0 0 0 0 0 3 3 6 3 0 0 0 3 6 6 6 3 3 6 3 3 3 0 0 3 0 0 0 0 10 10 19 16 13 23
0 0 0 0 0 0 0 0 0 0 0 0 0 3 3 0 0 0 0 0 3 3 6 6 6 6 6 0 0 3 0 0 3 0 0 3 0 0 6 3 6 10 19
0 0 0 0 0 0 0 0 0 0 0 0 0 3 0 0 0 0 0 0 0 0 3 6 6 6 6 3 0 0 0 0 0 3 0 0 3 0 0 3 10 16 32
0 0 0 0 0 0 0 0 0 0 0 3 3 3 0 3 6 0 0 0 0 0 0 0 6 3 3 0 0 0 3 3 3 0 3 0 0 0 0 3 3 13 26

GEFSSE_con_cape1000_108.txt.gz
Probability
52 61 87 87 81 74 65 65 61 58 65 71 74 81 90 90 87 90 94 90 90 87 87 90 90 81 90 90 94 97 97 90 87 87 90 94 90 81 77 81 97 94 84
48 65 87 84 74 77 77 71 58 58 65 55 71 81 84 87 87 97 97 90 84 87 87 84 87 81 77 84 87 90 97 90 84 84 94 97 94 77 81 84 90 97 81
48 39 61 71 55 58 58 45 45 52 42 48 52 52 61 71 71 68 84 87 87 87 90 90 87 81 84 84 87 87 87 81 84 94 94 94 97 87 81 74 81 90 71
35 35 39 61 52 52 35 32 26 26 32 32 26 35 39 45 61 55 65 68 74 84 84 90 87 90 84 90 87 84 84 81 87 97 90 94 90 87 77 77 84 74 81
26 35 48 48 42 32 26 23 29 26 26 29 29 26 29 35 35 42 48 55 58 71 71 74 84 84 84 81 81 81 84 84 94 97 84 94 87 97 84 84 77 74 81
19 23 39 39 32 26 23 19 13 16 13 13 13 19 26 35 42 45 39 39 42 58 58 65 74 84 81 77 77 77 77 81 87 71 84 94 87 87 84 77 74 77 74
19 19 23 45 32 23 16 16 13 6 10 10 10 13 16 19 29 35 32 23 32 29 42 52 58 58 74 77 81 77 71 74 77 58 71 84 87 94 68 68 74 68 74
16 13 10 35 32 19 13 10 6 3 3 3 6 6 13 13 19 26 29 32 29 35 32 35 39 52 58 71 68 65 74 68 55 42 71 81 94 94 71 65 68 74 68
13 10 6 6 13 29 16 10 3 10 0 0 0 6 6 6 16 23 23 32 29 35 29 29 42 35 58 61 68 61 65 77 58 26 35 68 97 94 71 61 65 71 71
3 6 3 3 3 0 3 10 3 3 0 3 6 16 19 19 19 23 39 29 32 26 26 23 29 35 45 61 68 68 71 71 39 13 35 74 97 94 74 58 55 68 71
0 0 3 3 0 0 0 0 3 10 10 13 10 23 16 3 0 10 16 26 23 13 23 26 23 29 48 52 71 68 74 35 16 6 29 87 90 87 71 68 65 61 71
0 0 0 0 0 0 0 0 0 0 0 0 0 3 6 0 3 3 3 23 23 26 29 32 32 32 35 16 32 61 35 19 3 13 55 94 90 71 68 68 65 65 68
0 0 0 0 0 0 0 0 0 0 0 0 0 3 3 0 3 3 3 6 16 16 6 6 26 3 6 3 16 13 16 6 6 6 48 90 87 74 65 71 71 74 74
0 0 0 0 0 0 0 0 0 0 0 0 0 0 0 3 3 3 0 3 6 0 0 0 6 0 0 3 3 10 6 13 3 16 42 90 87 71 61 77 74 77 84
0 0 0 0 0 0 0 0 0 0 0 0 0 0 0 0 3 3 0 3 0 0 0 0 3 3 0 3 0 0 3 0 3 10 26 84 87 71 65 71 77 81 84
0 0 0 0 0 0 0 0 0 0 0 0 0 0 0 3 3 3 0 0 0 0 0 3 0 3 0 0 0 3 0 0 0 0 13 58 90 87 81 77 81 84 84
0 0 0 0 0 0 0 0 0 0 0 0 0 0 0 0 0 0 0 0 0 0 0 0 0 3 0 0 3 3 0 6 0 0 10 16 32 74 94 94 81 84 84
0 0 0 0 0 0 0 0 0 0 0 0 0 0 0 0 0 0 0 0 0 0 0 0 0 0 3 0 0 0 0 3 6 6 3 10 10 10 52 94 87 84 84
0 0 0 0 0 0 0 0 0 0 0 0 0 3 3 3 0 0 3 0 0 0 0 0 0 0 0 0 0 0 0 0 0 0 0 0 3 6 3 39 81 87 90
0 0 0 0 0 0 0 0 0 0 0 0 0 0 0 0 3 3 3 3 0 0 0 0 0 0 3 0 0 0 0 0 0 0 0 0 0 0 3 6 26 45 84
0 0 0 0 0 0 0 0 0 0 0 0 0 0 3 3 3 3 3 0 0 0 0 0 0 0 3 0 0 0 0 0 0 0 0 0 0 0 0 3 0 6 26
0 0 0 0 0 0 0 0 0 0 0 0 0 0 0 3 0 0 0 0 3 0 0 0 0 0 3 0 0 0 0 0 0 0 0 0 0 0 0 0 0 0 0
0 0 0 0 0 0 0 0 0 0 0 0 0 0 0 0 0 0 3 0 0 3 0 0 0 0 0 0 0 0 0 0 0 0 0 0 0 0 0 0 0 3 0
0 0 0 0 0 0 0 0 0 0 0 0 0 0 0 0 0 0 0 0 0 0 3 3 0 0 0 0 0 0 0 0 0 0 0 0 0 0 0 0 0 3 0
0 0 0 0 0 0 0 0 0 0 0 0 3 3 3 3 0 0 0 0 0 0 0 0 0 0 0 0 0 0 0 0 0 0 0 0 0 0 0 0 0 0 0
0 0 0 0 0 0 0 0 0 0 0 3 3 3 3 3 0 0 0 0 0 0 0 0 0 0 0 0 0 0 0 0 0 0 0 0 0 0 0 0 0 0 3

GEFSSE_con_cape1000_114.txt.gz
Probability
39 61 81 74 71 74 74 71 71 74 77 84 87 90 87 90 94 94 94 97 94 87 87 87 84 77 74 84 87 87 81 77 77 81 94 90 90 87 81 87 81 77 77
35 65 81 74 71 71 77 74 77 81 81 77 84 84 84 87 87 90 90 94 94 90 84 77 81 77 71 81 81 74 74 77 81 87 90 87 87 81 81 84 77 74 71
48 55 68 71 74 71 74 71 65 74 68 74 84 81 77 84 77 81 84 84 81 81 87 87 87 81 65 71 84 77 81 77 87 90 94 77 71 87 77 81 81 74 71
35 45 58 68 68 58 52 55 52 48 52 61 61 61 55 48 58 68 68 68 74 77 81 84 81 81 74 68 68 77 84 81 87 87 65 71 61 84 90 81 81 68 65
26 35 55 65 65 55 45 39 39 35 35 39 35 35 35 45 45 55 55 55 58 61 71 74 77 81 65 74 81 71 77 84 87 65 39 35 48 74 84 84 77 68 65
19 29 48 58 58 52 39 35 29 23 19 19 16 23 26 35 39 42 48 48 45 48 55 65 71 65 61 71 74 77 77 74 61 32 26 32 42 81 81 81 81 77 68
19 26 45 55 52 39 35 32 23 16 16 13 16 16 19 29 32 35 39 42 42 52 45 48 58 61 55 55 65 71 81 77 45 26 23 23 52 84 84 74 74 74 77
13 23 35 45 42 39 32 26 23 19 16 10 6 19 19 19 23 29 39 45 42 48 48 42 42 48 55 52 58 61 71 84 39 13 19 23 71 94 84 74 77 74 77
10 10 10 29 32 35 32 26 23 19 16 13 13 16 19 23 19 32 39 45 48 45 45 42 39 45 42 45 65 61 74 84 52 13 16 13 84 94 90 84 84 77 81
3 0 0 3 3 10 10 26 16 19 19 19 19 16 23 23 19 23 32 35 45 45 45 48 42 42 45 45 55 65 81 77 32 23 10 23 90 90 94 87 90 77 84
0 0 0 0 0 0 0 6 6 10 13 16 16 19 16 3 0 3 3 29 29 32 32 42 48 39 42 39 45 61 65 32 13 6 3 35 87 90 94 90 87 81 77
0 0 0 0 0 0 0 0 0 0 0 0 0 3 0 0 0 0 0 23 26 29 35 39 42 35 29 10 19 39 26 10 6 6 0 68 84 87 90 94 90 87 87
0 0 0 0 0 0 0 0 0 0 0 0 0 0 0 0 0 0 0 0 0 13 10 10 23 13 6 0 0 6 6 0 0 0 0 74 87 84 87 90 94 94 87
0 0 0 0 0 0 0 0 0 0 0 0 0 0 0 0 0 0 0 0 0 0 0 0 0 0 0 0 0 0 0 0 0 0 0 74 87 81 74 87 90 90 90
0 0 0 0 0 0 0 0 0 0 0 0 0 0 0 0 0 0 0 0 0 0 0 0 0 0 0 0 0 0 0 0 0 0 0 42 77 84 74 77 87 87 94
0 0 0 0 0 0 0 0 0 0 0 0 0 0 0 0 0 0 0 0 0 0 0 0 0 0 0 0 0 0 0 0 0 0 0 23 68 81 90 71 84 84 84
0 0 0 0 0 0 0 0 0 0 0 0 0 0 0 0 0 0 0 0 0 0 0 0 0 0 0 0 0 0 0 0 0 0 0 0 23 61 81 81 84 81 81
0 0 0 0 0 0 0 0 0 0 0 0 0 0 0 0 0 0 0 0 0 0 0 0 0 0 0 0 0 0 0 0 0 0 0 0 0 10 45 77 77 87 87
0 0 0 0 0 0 0 0 0 0 0 0 0 0 0 0 0 0 0 0 0 0 0 0 0 0 0 0 0 0 0 0 0 0 0 0 0 0 10 26 65 71 90
0 0 0 0 0 0 0 0 0 0 0 0 0 0 0 0 0 0 0 0 0 0 0 0 0 0 0 0 0 0 0 0 0 0 0 0 0 0 0 6 13 35 71
0 0 0 0 0 0 0 0 0 0 0 0 0 0 0 0 0 0 0 0 0 0 0 0 0 0 0 0 0 0 0 0 0 0 0 0 0 0 0 0 0 3 26
0 0 0 0 0 0 0 0 0 0 0 0 0 0 0 0 0 0 0 0 0 0 0 0 0 0 0 0 0 0 0 0 0 0 0 0 0 0 0 0 0 0 0
0 0 0 0 0 0 0 0 0 0 0 0 0 0 0 0 0 0 0 0 0 0 0 0 0 0 0 0 0 0 0 0 0 0 0 0 0 0 0 0 0 0 0
0 0 0 0 0 0 0 0 0 0 0 0 0 0 0 0 0 0 0 0 0 0 0 0 0 0 0 0 0 0 0 0 0 0 0 0 0 0 0 0 0 0 0
0 0 0 0 0 0 0 0 0 0 0 0 0 0 0 0 0 0 0 0 0 0 0 0 0 0 0 0 0 0 0 0 0 0 0 0 0 0 0 0 0 0 0
0 0 0 0 0 0 0 0 0 0 0 0 0 0 0 0 0 0 0 0 0 0 0 0 0 0 0 0 0 0 0 0 0 0 0 0 0 0 0 0 0 0 0

GEFSSE_con_cape1000_120.txt.gz
Probability
0 10 68 65 65 65 65 61 71 77 81 84 84 87 87 84 84 94 94 94 90 87 90 81 81 84 81 84 77 71 68 68 74 84 84 84 77 81 71 61 74 65 71
0 45 65 61 55 58 61 65 65 71 71 74 74 77 81 81 84 87 94 94 90 87 84 81 77 77 77 77 74 77 71 71 81 84 87 81 87 74 71 74 74 68 74
29 45 61 58 52 55 55 65 61 65 58 58 65 68 74 77 71 74 81 87 87 77 81 84 81 77 68 71 74 77 77 71 81 77 81 58 55 68 71 65 68 58 58
29 39 42 52 52 55 55 52 52 52 55 55 55 52 61 65 65 68 71 74 71 81 77 81 81 84 81 71 74 81 87 84 81 81 26 42 52 71 68 68 68 52 55
26 35 52 61 55 48 42 42 48 42 35 39 42 42 39 42 48 55 55 65 68 74 77 77 77 77 81 81 81 74 77 90 81 42 23 19 29 71 77 71 65 55 48
23 29 42 52 45 39 35 29 35 35 32 29 29 26 32 29 29 35 42 45 48 55 65 65 74 71 77 77 74 81 81 81 55 16 10 10 23 65 74 74 68 55 52
19 19 29 48 42 32 26 26 19 23 23 16 23 23 29 26 23 26 39 39 42 48 48 52 61 58 61 71 68 74 74 84 48 13 3 6 19 74 74 74 68 58 52
13 13 16 42 42 26 23 19 16 16 10 10 13 16 23 26 26 26 26 35 42 45 45 55 52 45 45 52 58 68 68 74 48 16 6 3 39 84 65 71 65 71 65
10 10 13 10 23 29 23 16 16 16 13 13 10 19 16 19 19 26 32 29 26 45 42 42 45 42 42 45 48 55 65 71 32 13 6 0 45 81 77 71 68 74 68
3 3 3 3 6 6 6 10 10 6 6 6 10 13 16 16 10 13 16 16 19 23 32 42 35 39 35 39 52 58 68 55 23 10 6 6 55 84 71 74 81 71 77
0 0 0 0 0 0 0 0 3 6 6 6 6 10 6 3 0 0 0 13 23 19 16 19 29 35 32 35 32 39 39 19 3 6 6 16 52 81 84 81 84 74 71
0 0 0 0 0 0 0 0 0 0 0 0 0 0 0 0 0 0 0 3 6 16 16 19 23 19 19 10 13 19 6 3 3 3 6 23 58 81 81 84 81 77 77
0 0 0 0 0 0 0 0 0 0 0 0 0 0 0 0 0 0 0 0 0 0 0 0 0 3 6 0 0 3 3 3 0 0 0 29 61 81 87 81 84 84 77
0 0 0 0 0 0 0 0 0 0 0 0 0 0 0 0 0 0 0 0 0 0 0 0 0 0 0 0 0 0 0 0 0 0 0 23 61 71 71 81 87 87 81
0 0 0 0 0 0 0 0 0 0 0 0 0 0 0 0 0 0 0 0 0 0 0 0 0 0 0 0 0 0 0 0 0 0 0 6 42 68 68 81 81 87 87
0 0 0 0 0 0 0 0 0 0 0 0 0 0 0 0 0 0 0 0 0 0 0 0 0 0 0 0 0 0 0 0 0 0 0 0 29 48 65 74 77 84 81
0 0 0 0 0 0 0 0 0 0 0 0 0 0 0 0 0 0 0 0 0 0 0 0 0 0 0 0 0 0 0 0 0 0 0 0 10 23 58 65 68 71 77
0 0 0 0 0 0 0 0 0 0 0 0 0 0 0 0 0 0 0 0 0 0 0 0 0 0 0 0 0 0 0 0 0 0 0 0 0 6 26 58 65 71 71
0 0 0 0 0 0 0 0 0 0 0 0 0 0 0 0 0 0 0 0 0 0 0 0 0 0 0 0 0 0 0 0 0 0 0 0 0 0 3 6 45 55 55
0 0 0 0 0 0 0 0 0 0 0 0 0 0 0 0 0 0 0 0 0 0 0 0 0 0 0 0 0 0 0 0 0 0 0 0 0 0 0 3 3 16 45
0 0 0 0 0 0 0 0 0 0 0 0 0 0 0 0 0 0 0 0 0 0 0 0 0 0 0 0 0 0 0 0 0 0 0 0 0 0 0 0 0 0 6
0 0 0 0 0 0 0 0 0 0 0 0 0 0 0 0 0 0 0 0 0 0 0 0 0 0 0 0 0 0 0 0 0 0 0 0 0 0 0 0 0 0 3
0 0 0 0 0 0 0 0 0 0 0 0 0 0 0 0 0 0 0 0 0 0 0 0 0 0 0 0 0 0 0 0 0 0 0 0 0 0 0 0 0 0 0
0 0 0 0 0 0 0 0 0 0 0 0 0 0 0 0 0 0 0 0 0 0 0 0 0 0 0 0 0 0 0 0 0 0 0 0 0 0 0 0 0 0 0
0 0 0 0 0 0 0 0 0 0 0 0 0 0 0 0 0 0 0 0 0 0 0 0 0 0 0 0 0 0 0 0 0 0 0 0 0 0 0 0 0 0 0
0 0 0 0 0 0 0 0 0 0 0 0 0 0 0 0 0 0 0 0 0 0 0 0 0 0 0 0 0 0 0 0 0 0 0 0 0 0 0 0 0 0 0

GEFSSE_con_cape1000_126.txt.gz
Probability
16 29 52 55 55 58 58 65 58 61 74 77 74 71 71 74 77 81 87 94 87 81 77 81 81 84 87 84 71 68 68 68 77 71 77 84 74 71 74 65 65 81 68
6 19 48 52 48 48 55 52 52 45 55 58 65 65 65 71 71 74 81 84 87 81 77 71 68 74 81 77 74 77 71 81 77 77 77 81 71 61 74 65 65 84 68
13 23 35 48 48 52 48 42 45 42 42 48 52 52 58 58 71 68 71 77 77 74 68 71 71 77 77 84 81 81 74 81 84 77 77 71 71 65 61 65 77 61 65
23 29 26 45 48 48 42 42 39 39 42 39 42 45 45 52 58 55 58 61 65 61 61 65 71 74 77 77 81 84 81 74 84 77 58 55 65 71 74 74 68 58 61
19 23 26 42 35 32 35 32 32 29 29 29 29 32 35 35 35 42 55 61 61 58 61 58 74 68 74 68 71 81 84 74 71 68 58 71 84 81 77 68 61 55 61
19 16 26 39 32 29 29 19 16 16 13 16 19 19 16 29 29 32 32 52 48 48 55 58 58 58 58 55 65 65 81 74 74 61 68 71 77 84 81 74 52 52 58
13 16 16 29 29 19 19 19 19 16 10 10 6 16 19 13 23 16 19 23 26 42 45 48 52 35 35 45 55 65 65 61 58 55 61 61 74 71 65 71 48 45 55
10 10 6 26 19 19 13 16 13 6 13 10 6 3 6 6 10 13 19 23 19 26 32 39 42 39 42 32 39 48 61 68 23 26 48 58 65 68 65 58 55 52 42
10 6 6 3 6 19 16 10 6 6 3 0 0 0 3 3 3 3 6 13 13 19 26 29 32 35 32 29 29 35 55 55 48 39 16 39 55 61 58 52 55 55 52
6 6 3 3 6 6 3 10 6 0 0 0 0 3 3 3 3 3 3 10 10 10 13 13 19 19 26 39 32 45 52 39 32 32 19 39 42 58 48 45 61 55 61
3 0 3 0 0 0 0 0 3 0 0 0 3 3 0 0 0 0 0 3 0 3 10 3 6 13 19 29 32 29 26 10 16 19 16 35 35 42 55 52 61 55 65
3 0 0 0 0 0 0 0 0 0 0 0 0 0 0 0 0 0 0 3 6 3 6 3 3 6 10 16 26 19 6 16 16 6 13 32 39 58 52 39 68 58 68
3 0 0 0 0 0 0 0 0 0 0 0 0 0 0 0 0 0 0 0 3 0 3 3 3 6 6 13 13 16 6 13 6 6 13 19 39 52 52 55 52 58 65
3 3 3 0 0 0 0 0 0 0 0 0 0 0 0 0 0 0 0 0 0 0 3 3 6 0 3 3 10 10 6 19 13 13 26 19 32 48 45 42 58 61 58
3 3 3 0 0 0 0 0 0 0 0 0 0 0 0 0 0 0 0 0 0 0 0 0 0 0 0 0 3 10 10 6 6 3 13 26 32 42 45 39 58 58 58
0 0 0 0 0 0 0 0 0 0 0 0 0 0 0 0 0 0 0 0 0 0 0 0 0 0 0 0 3 3 6 6 3 6 10 32 29 35 45 45 58 52 52
0 0 0 0 0 0 0 0 0 0 0 0 0 0 0 0 0 0 0 0 0 0 0 0 0 0 0 0 0 3 6 6 6 6 13 19 32 29 39 55 55 55 55
0 0 0 0 0 0 0 0 0 0 0 0 0 0 0 0 0 0 0 0 0 0 0 0 0 0 0 0 0 3 10 19 6 13 19 19 35 29 32 52 65 55 58
0 0 0 0 0 0 0 0 0 0 0 0 0 0 0 0 0 0 0 0 0 0 0 0 0 0 0 3 3 6 13 10 13 16 13 6 23 32 35 39 48 52 52
0 0 0 0 0 0 0 0 0 0 0 0 0 0 0 0 0 0 0 0 0 0 0 0 0 3 3 3 0 0 10 10 16 16 19 16 19 13 23 26 32 26 39
3 0 0 0 0 0 0 0 0 0 0 0 0 0 0 0 0 0 0 0 0 3 0 0 0 0 0 0 3 0 3 0 10 16 10 13 16 10 19 23 29 32 45
6 3 0 0 0 0 0 0 0 0 0 0 0 0 0 0 0 0 0 0 0 3 0 0 3 6 0 0 0 3 3 0 3 3 13 16 13 13 13 6 13 29 29
6 0 0 0 0 0 0 0 0 0 0 0 0 0 0 0 0 0 0 0 0 0 0 0 3 3 3 3 3 0 3 3 3 3 6 13 10 19 16 19 10 10 6
3 0 0 0 0 0 0 0 0 0 0 0 0 0 0 0 0 0 0 0 0 0 0 0 0 6 3 3 3 3 3 0 0 0 0 0 3 3 10 3 10 13 16
3 6 0 0 0 0 0 0 0 0 0 0 0 0 0 0 0 0 0 0 0 3 3 0 6 6 13 10 6 3 0 6 0 0 0 0 6 0 13 10 19 23 16
0 3 0 0 0 0 0 0 0 0 0 0 0 0 0 0 0 0 0 0 0 3 3 3 3 10 10 6 10 10 3 3 3 6 0 0 0 0 3 10 19 32 16